Greenville, MS

8:46 PM CDT on March 22, 2017 (GMT -0500)
Mid Delta Regional

Weather History for KGLH - November, 2013

Change the Weather History Date:

Monday, November 18, 2013

  Actual Average Record
Temperature  
Mean Temperature 59 °F 53 °F  
Max Temperature 67 °F 64 °F 84 °F (1921)
Min Temperature 50 °F 42 °F 18 °F (1959)
Degree Days  
Heating Degree Days 6 12  
Month to date heating degree days 183 172  
Since 1 July heating degree days 274 286  
Cooling Degree Days 0 0  
Month to date cooling degree days 10 9  
Year to date cooling degree days 2247 2183  
Growing Degree Days 8 (Base 50)    
Moisture  
Dew Point 41 °F    
Average Humidity 57    
Maximum Humidity 77    
Minimum Humidity 37    
Precipitation  
Precipitation 0.00 in 0.16 in 4.10 in (1969)
Month to date precipitation 0.94 2.65  
Year to date precipitation 45.72 44.61  
Sea Level Pressure  
Sea Level Pressure 30.15 in    
Wind  
Wind Speed 9 mph (NNE)    
Max Wind Speed 15 mph    
Max Gust Speed 17 mph    
Visibility 10 miles    
Events      
T = Trace of Precipitation, MM = Missing Value Source: NWS Daily Summary

Daily Weather History Graph

Daily Weather History Graph

Search for Another Location

Airport or City:

Trip Planner

Search our weather history database for the weather conditions in past years. The results will help you decide how hot, cold, wet, or windy it might be!

Date:

Astronomy

Nov. 18, 2013 Rise Set
Actual Time 6:38 AM CST 4:59 PM CST
Civil Twilight 6:11 AM CST 5:26 PM CST
Nautical Twilight 5:41 AM CST 5:56 PM CST
Astronomical Twilight 5:12 AM CST 6:25 PM CST
Moon 6:02 PM CST (11/18) 7:26 AM CST (11/18)
Length of Visible Light 11h 14m
Length of Day
10h 21m
Full, 99% of the Moon is Illuminated
Nov 18
Full
Nov 25
Last Quarter
Dec 2
New
Dec 9
First Quarter
Dec 17
Full

Hourly Weather History & Observations

Time (CST) Temp. Dew Point Humidity Pressure Visibility Wind Dir Wind Speed Gust Speed Precip Events Conditions
12:53 AM 64.9 °F 46.0 °F 50% 30.03 in 10.0 mi WNW 6.9 mph 17.3 mph N/A   Overcast
1:15 AM 64.4 °F 48.2 °F 56% 30.02 in 10.0 mi North - - N/A   Squalls
1:53 AM 62.1 °F 48.0 °F 60% 30.06 in 10.0 mi NNE 5.8 mph - N/A   Mostly Cloudy
2:06 AM 60.8 °F 46.4 °F 59% 30.04 in 10.0 mi North - - N/A   Scattered Clouds
2:53 AM 57.0 °F 50.0 °F 77% 30.07 in 10.0 mi North 4.6 mph - N/A   Partly Cloudy
3:53 AM 57.0 °F 43.0 °F 59% 30.08 in 10.0 mi North 6.9 mph - N/A   Mostly Cloudy
4:53 AM 55.9 °F 39.9 °F 55% 30.09 in 10.0 mi NNE 4.6 mph - N/A   Partly Cloudy
5:53 AM 54.0 °F 36.0 °F 51% 30.11 in 10.0 mi NNE 6.9 mph - N/A   Clear
6:53 AM 51.1 °F 37.9 °F 61% 30.12 in 10.0 mi North 6.9 mph - N/A   Clear
7:53 AM 55.9 °F 39.0 °F 53% 30.14 in 10.0 mi North 8.1 mph - N/A   Clear
8:53 AM 59.0 °F 37.9 °F 46% 30.17 in 10.0 mi North 13.8 mph - N/A   Clear
9:53 AM 61.0 °F 39.0 °F 44% 30.18 in 10.0 mi NNE 15.0 mph - N/A   Clear
10:53 AM 63.0 °F 41.0 °F 45% 30.19 in 10.0 mi NE 12.7 mph - N/A   Clear
11:53 AM 66.0 °F 39.9 °F 38% 30.18 in 10.0 mi NNE 13.8 mph - N/A   Clear
12:53 PM 66.0 °F 39.9 °F 38% 30.18 in 10.0 mi NNE 15.0 mph - N/A   Clear
1:53 PM 66.0 °F 39.0 °F 37% 30.17 in 10.0 mi NE 13.8 mph - N/A   Clear
2:53 PM 66.0 °F 39.9 °F 38% 30.17 in 10.0 mi NNE 13.8 mph - N/A   Clear
3:53 PM 64.0 °F 41.0 °F 43% 30.18 in 10.0 mi NE 12.7 mph - N/A   Clear
4:53 PM 60.1 °F 42.1 °F 51% 30.20 in 10.0 mi NNE 9.2 mph - N/A   Clear
5:53 PM 55.9 °F 44.1 °F 64% 30.21 in 10.0 mi NNE 6.9 mph - N/A   Clear
6:53 PM 54.0 °F 43.0 °F 66% 30.22 in 10.0 mi NNE 6.9 mph - N/A   Clear
7:53 PM 51.1 °F 39.9 °F 66% 30.23 in 10.0 mi North 5.8 mph - N/A   Clear
8:53 PM 52.0 °F 39.0 °F 61% 30.23 in 10.0 mi NNE 6.9 mph - N/A   Clear
9:53 PM 51.1 °F 39.0 °F 63% 30.23 in 10.0 mi NNE 5.8 mph - N/A   Clear
10:53 PM 51.1 °F 39.0 °F 63% 30.22 in 10.0 mi NE 6.9 mph - N/A   Clear
11:53 PM 51.1 °F 39.0 °F 63% 30.23 in 10.0 mi NE 8.1 mph - N/A   Clear